SCP
0 0 0 0 0 0 0 0 0 0 0 0 0 0 0 0 0 0 0 0 0 0 0 0 0 0 0 0 0 0 0 0 0 0 0 0 0 0 0 0 0 0 0
0 0 0 0 0 0 0 0 0 0 0 0 0 0 0 0 0 0 0 0 0 0 0 0 0 0 0 0 0 0 0 0 0 0 0 0 0 0 0 0 0 0 0
0 0 0 0 0 0 0 0 0 0 0 0 0 0 0 0 0 0 0 0 0 0 0 0 0 0 0 0 0 0 0 0 0 0 0 0 0 0 0 0 0 0 0
0 0 0 0 0 0 0 0 0 0 0 0 0 0 0 0 0 0 0 0 0 0 0 0 0 0 0 0 0 0 0 0 0 0 0 0 0 0 0 0 0 0 0
0 0 0 0 0 0 0 0 0 0 0 0 0 0 0 0 0 0 0 0 0 0 0 0 0 0 0 0 0 0 0 0 0 0 0 0 0 0 0 0 0 0 0
0 0 0 0 0 0 0 0 0 0 0 0 0 0 0 0 0 0 0 0 0 0 0 0 0 0 0 0 0 0 0 0 0 0 0 0 0 0 0 0 0 0 0
0 0 0 0 0 0 0 0 0 0 0 0 0 0 0 0 0 0 0 0 0 0 0 0 0 0 0 0 0 0 0 0 0 0 0 0 0 0 0 0 0 0 0
0 0 0 0 0 0 0 0 0 0 0 0 0 0 0 0 0 0 0 0 0 0 0 0 0 0 0 0 0 0 0 0 0 0 0 0 0 0 0 0 0 0 0
0 0 0 0 0 0 0 0 0 0 0 0 0 0 0 0 0 0 0 0 0 0 0 0 0 0 0 0 0 0 0 0 0 0 0 0 0 0 0 0 0 0 0
0 0 0 0 0 0 0 0 0 0 0 0 0 0 0 0 0 0 0 0 0 0 0 0 0 0 0 0 0 0 0 0 0 0 0 0 0 0 0 0 0 0 0
0 0 0 0 0 0 0 0 0 0 0 0 0 0 0 0 0 0 0 0 0 0 0 0 0 0 0 0 0 0 0 0 0 0 0 0 0 0 0 0 0 0 0
0 0 0 0 0 0 0 0 0 0 0 0 0 0 0 0 0 0 0 0 0 0 0 0 0 0 0 0 0 0 0 0 0 0 0 0 0 0 0 0 0 0 0
0 0 0 0 0 0 0 0 0 0 0 0 0 0 0 0 0 0 0 0 0 0 0 0 0 0 0 0 0 0 0 0 0 0 0 0 0 0 0 0 0 0 0
0 0 0 0 0 0 0 0 0 0 0 0 0 0 0 0 0 0 0 0 0 0 0 0 0 0 0 0 0 0 0 0 0 0 0 0 0 0 0 0 0 0 0
0 0 0 0 0 0 0 0 0 0 0 0 0 0 0 0 0 0 0 0 0 0 0 0 0 0 0 0 0 0 0 0 0 0 0 0 0 0 0 0 0 0 0
0 0 0 0 0 0 0 0 0 0 0 0 0 0 0 0 0 0 0 0 0 0 0 0 0 0 0 0 0 0 0 0 0 0 0 0 0 0 0 0 0 0 0
0 0 0 0 0 0 0 0 0 0 0 0 0 0 0 0 0 0 0 0 0 0 0 0 0 0 0 0 0 0 0 0 0 0 0 0 0 0 0 0 0 0 0
0 0 0 0 0 0 0 0 0 0 0 0 0 0 0 0 0 0 0 0 0 0 0 0 0 0 0 0 0 0 0 0 0 0 0 0 0 0 0 0 0 0 0
0 0 0 0 0 0 0 0 0 0 0 0 0 0 0 0 0 0 0 0 0 0 0 0 0 0 0 0 0 0 0 0 0 0 0 0 0 0 0 0 0 0 0
0 0 0 0 0 0 0 0 0 0 0 0 0 0 0 0 0 0 0 0 0 0 0 0 0 0 0 0 0 0 0 0 0 0 0 0 0 0 0 0 0 0 0
0 0 0 0 0 0 0 0 0 0 0 0 0 0 0 0 0 0 0 0 0 0 0 0 0 0 0 0 0 0 0 0 0 0 0 0 0 0 0 0 0 0 0
0 0 0 0 0 0 0 0 0 0 0 0 0 0 0 0 0 0 0 0 0 0 0 0 0 0 0 0 0 0 0 0 0 0 0 0 0 0 0 0 0 0 0
0 0 0 0 0 0 0 0 0 0 0 0 0 0 0 0 0 0 0 0 0 0 0 0 0 0 0 0 0 0 0 0 0 0 0 0 0 0 0 0 0 0 0
0 0 0 0 0 0 0 0 0 0 0 0 0 0 0 0 0 0 0 0 0 0 0 0 0 0 0 0 0 0 0 0 0 0 0 0 0 0 0 0 0 0 0
0 0 0 0 0 0 0 0 0 0 0 0 0 0 0 0 0 0 0 0 0 0 0 0 0 0 0 0 0 0 0 0 0 0 0 0 0 0 0 0 0 0 0
0 0 0 0 0 0 0 0 0 0 0 0 0 0 0 0 0 0 0 0 0 0 0 0 0 0 0 0 0 0 0 0 0 0 0 0 0 0 0 0 0 0 0
Wind_Speed
4 3 3 3 3 4 4 4 4 4 3 3 3 3 3 2 2 2 2 3 3 3 3 2 3 3 3 3 3 3 3 2 2 2 1 1 1 0 0 1 1 1 1
3 2 2 3 3 4 4 3 4 4 4 4 3 3 3 2 2 2 2 2 3 3 3 3 2 3 2 3 4 3 2 1 2 2 2 1 1 1 0 0 1 1 1
3 3 3 3 3 3 4 3 4 4 4 4 3 3 3 2 2 2 2 2 2 3 3 3 3 3 3 3 4 4 4 3 2 1 2 2 2 1 1 1 1 1 2
3 3 3 3 3 3 3 4 4 4 4 4 4 5 4 4 4 3 2 2 2 3 3 3 3 3 3 3 3 3 3 4 3 2 1 1 0 2 1 2 1 2 2
3 2 2 3 2 2 2 3 3 3 3 4 5 5 4 3 3 3 4 3 2 2 2 3 3 3 3 3 3 3 3 3 4 3 2 1 1 2 2 2 2 2 2
4 3 1 1 1 2 2 2 3 3 3 3 4 4 5 5 5 5 4 3 2 2 2 2 2 3 3 3 3 4 4 4 4 3 3 3 2 3 2 3 2 2 2
4 3 2 1 1 1 1 2 3 3 3 3 3 4 4 4 5 4 4 3 2 1 1 2 2 2 2 3 3 3 4 4 4 4 3 3 3 2 2 3 2 3 2
5 4 3 2 2 1 1 1 2 2 2 3 2 2 3 2 2 3 3 3 2 1 1 1 1 2 2 2 2 2 3 3 3 4 4 3 3 3 3 3 3 3 3
5 4 4 3 2 2 1 1 2 2 2 2 3 2 3 2 2 2 2 2 1 1 1 1 1 1 2 2 2 2 2 2 2 2 3 3 2 3 3 3 4 4 4
5 5 4 3 3 2 2 1 2 2 2 2 2 2 2 2 2 2 2 2 1 1 1 1 1 1 1 2 2 1 1 2 2 2 3 3 2 2 3 3 3 4 4
5 5 4 4 3 3 2 2 2 3 3 2 2 3 3 3 2 2 2 1 1 1 1 1 1 1 1 1 2 1 2 2 2 2 2 3 3 3 2 3 3 3 3
5 5 4 4 4 4 3 2 2 2 2 2 2 3 3 3 2 2 2 1 1 1 1 1 2 1 1 1 2 2 2 2 3 2 2 3 2 3 3 2 3 3 4
6 5 4 4 4 4 3 3 2 2 2 2 2 3 3 2 2 2 1 1 1 1 1 1 1 2 2 2 2 2 2 2 3 2 3 3 3 3 3 3 3 2 2
6 6 5 4 4 4 3 3 2 2 2 2 2 2 2 2 1 1 1 1 0 0 1 1 1 1 2 2 2 2 2 2 2 2 2 2 3 3 3 3 3 3 3
7 6 6 5 5 4 4 4 3 2 2 2 2 1 1 1 2 2 1 1 1 0 0 1 1 1 1 1 1 1 1 1 2 1 2 2 2 2 2 2 2 3 3
7 7 6 5 5 5 4 3 3 2 1 1 1 1 1 1 1 1 1 1 1 1 0 0 0 0 0 0 1 1 1 1 2 2 1 1 1 1 1 2 2 3 3
8 7 6 5 5 4 4 3 3 2 1 1 1 1 1 1 1 1 1 1 1 1 1 1 0 0 0 0 1 1 2 2 1 2 1 1 1 1 1 1 1 2 2
9 7 6 6 5 4 4 3 2 2 1 1 1 1 1 1 1 0 0 0 1 1 1 1 1 1 1 0 1 1 2 1 1 1 2 2 1 1 1 1 1 2 2
8 7 6 5 5 4 3 2 2 2 2 2 2 2 1 1 0 0 0 0 0 1 1 1 1 1 1 1 0 1 1 1 1 1 1 2 2 1 1 2 2 2 2
8 7 6 5 4 5 4 2 2 2 2 2 2 2 1 1 1 1 1 0 0 0 1 1 1 1 1 1 1 1 1 1 1 1 1 1 2 1 1 2 2 3 3
8 7 5 4 5 4 4 3 2 3 3 3 2 2 2 1 1 1 1 0 0 0 0 1 1 1 2 1 1 1 1 1 1 1 1 1 1 2 2 3 3 3 3
8 7 5 5 5 4 4 3 3 4 3 3 2 2 2 2 1 1 1 1 0 0 0 1 1 1 2 2 1 2 2 2 2 2 2 1 2 2 3 3 3 3 3
8 6 5 5 4 4 4 4 4 4 3 3 3 2 2 2 2 1 1 1 1 0 1 1 1 1 2 2 2 2 2 3 2 2 2 3 3 3 2 2 2 2 2
7 6 6 5 5 5 5 4 4 4 3 3 3 2 2 2 2 2 1 1 1 1 1 1 2 2 2 2 2 2 1 2 2 2 2 2 3 2 2 2 2 2 2
7 6 5 5 6 6 5 4 4 3 3 3 2 2 2 2 2 2 2 2 2 2 3 2 2 2 2 3 4 3 2 2 2 2 2 2 2 2 2 2 2 2 2
6 6 6 6 6 6 6 5 4 3 3 2 2 2 2 2 2 2 2 4 3 4 5 4 4 3 4 5 5 5 5 4 4 3 2 2 2 2 2 2 2 2 2
Wind_Direction
253 232 214 200 192 194 199 199 202 205 200 191 185 180 180 173 169 165 168 173 168 166 168 175 176 183 180 178 176 170 155 148 149 140 117 56 60 61 266 218 206 179 171
262 241 206 188 190 192 197 200 204 203 201 197 191 188 177 174 166 163 163 168 170 171 172 176 175 187 182 178 176 173 168 170 189 178 177 189 191 188 316 302 234 217 190
264 245 214 200 198 199 200 200 202 202 200 196 181 168 158 151 159 168 164 172 177 170 171 181 177 186 187 190 190 191 189 183 192 204 209 199 209 199 185 221 236 242 224
292 268 228 209 204 203 198 195 190 189 190 188 186 181 182 179 180 174 168 167 169 162 166 178 182 187 193 196 195 201 204 189 189 185 271 294 261 208 202 197 217 244 241
321 297 253 218 202 184 183 181 173 174 178 187 190 189 188 182 174 170 166 162 159 159 165 174 183 191 198 200 196 196 202 202 197 190 192 199 266 249 231 235 231 235 242
345 334 310 203 148 132 148 166 169 167 169 180 186 189 184 178 175 173 169 165 160 158 167 178 183 191 199 201 204 203 204 204 199 195 200 200 200 204 220 237 251 252 248
355 358 5 15 66 104 125 151 160 158 160 167 176 182 181 180 181 178 175 168 168 170 184 186 187 189 198 204 207 205 210 204 202 203 211 217 220 210 213 222 239 254 259
7 5 4 7 20 48 97 139 151 148 143 151 151 157 164 170 171 172 169 174 180 182 192 199 194 191 191 195 200 207 215 211 210 211 211 212 210 208 208 215 218 237 242
7 2 3 14 18 28 43 112 126 121 129 136 132 133 144 146 143 149 157 163 166 169 175 183 193 198 190 188 191 203 209 207 212 216 216 218 212 211 219 217 220 232 239
4 1 2 9 14 18 37 61 79 91 105 122 120 114 119 127 134 132 131 140 138 143 153 167 185 191 190 185 188 205 207 200 211 221 220 224 216 211 213 219 231 238 244
360 359 359 1 11 23 41 62 73 76 75 79 97 103 100 103 114 120 123 129 132 137 150 175 180 186 197 198 191 194 195 199 207 217 219 229 230 214 217 222 225 228 233
357 1 4 9 13 16 22 38 61 72 71 75 80 92 92 104 108 108 110 123 154 158 167 187 184 191 205 208 207 206 206 205 210 213 212 222 223 218 219 218 226 232 234
356 1 8 11 13 13 15 26 41 56 69 77 80 91 94 98 103 105 103 112 135 169 176 186 190 197 204 205 211 218 210 219 226 223 219 222 218 221 220 219 223 226 232
1 359 359 1 4 8 10 15 26 40 60 73 72 75 86 87 85 83 86 96 124 145 202 200 201 207 206 201 203 213 213 220 237 238 236 234 229 231 226 225 224 222 222
358 356 353 353 355 356 359 1 7 26 50 76 77 60 59 72 72 62 53 53 58 71 252 214 203 206 221 201 196 210 216 224 227 240 244 244 243 248 241 234 226 221 219
344 344 344 345 346 344 344 347 353 5 29 62 68 55 50 57 63 58 48 48 45 52 60 41 235 215 209 144 208 233 216 226 229 238 260 274 239 221 231 229 226 228 225
337 336 335 331 330 331 332 331 342 10 26 38 52 66 50 44 49 87 82 51 38 47 53 27 32 2 359 174 217 251 241 226 232 243 248 263 265 242 230 220 218 231 256
338 334 332 329 329 331 331 334 354 18 22 18 19 41 36 21 10 59 79 38 27 11 347 342 348 355 9 17 221 239 241 230 237 251 250 247 250 249 234 244 253 254 257
336 332 332 330 332 335 336 348 15 24 24 4 353 354 358 334 331 352 353 339 327 344 334 319 313 330 348 14 273 251 229 215 258 273 274 266 262 238 224 235 245 254 260
344 343 341 343 346 349 350 359 16 17 4 345 334 338 327 310 328 326 323 306 269 306 330 329 318 319 330 7 354 290 244 233 267 290 286 288 273 259 238 246 251 253 255
346 348 347 350 349 350 351 355 7 357 348 341 335 339 341 344 337 333 338 343 26 22 342 336 333 331 326 334 337 313 277 254 259 268 279 283 284 271 271 267 263 264 263
345 349 348 350 353 354 351 351 352 347 345 345 345 345 343 350 339 343 342 339 337 42 337 341 339 335 332 336 337 336 316 291 272 273 278 278 270 261 262 263 272 273 269
341 344 344 345 351 354 351 344 342 342 341 346 348 346 348 349 345 336 324 320 315 300 309 311 307 318 320 333 341 325 323 312 287 277 283 286 288 277 266 268 269 259 255
339 340 342 344 345 348 346 342 340 340 340 342 346 347 349 350 350 343 327 321 316 310 307 300 298 304 305 310 316 314 311 312 300 280 266 268 274 272 279 271 254 251 254
334 336 337 337 338 339 339 343 344 340 334 337 344 347 351 346 347 346 337 321 313 307 300 294 288 284 289 304 312 306 299 295 287 287 273 260 255 253 258 259 254 250 251
330 334 337 336 335 336 337 341 341 335 329 331 340 341 340 340 337 338 352 5 347 345 334 323 311 305 302 305 300 303 303 299 277 277 258 248 249 251 260 266 266 261 257